Time,TemperatureF,DewpointF,PressureIn,WindDirection,WindDirectionDegrees,WindSpeedMPH,WindSpeedGustMPH,Humidity,HourlyPrecipIn,Conditions,Clouds,dailyrainin,SolarRadiationWatts/m^2,SoftwareType,DateUTC
2013-01-04 00:03:00,18.5,14.2,30.20,WSW,238,10.0,14.0,83,0.00,,---,0.00,0.00,VWS V14.01,2013-01-04 06:03:00,
2013-01-04 00:08:00,18.4,14.1,30.20,SW,236,8.0,12.0,83,0.00,,---,0.00,0.00,VWS V14.01,2013-01-04 06:08:00,
2013-01-04 00:13:00,18.4,14.1,30.19,WSW,237,10.0,12.0,83,0.00,,---,0.00,0.00,VWS V14.01,2013-01-04 06:13:00,
2013-01-04 00:18:00,18.3,14.0,30.19,SW,235,9.0,9.0,83,0.00,,---,0.00,0.00,VWS V14.01,2013-01-04 06:18:00,
2013-01-04 00:23:00,18.3,14.0,30.18,SW,233,9.0,11.0,83,0.00,,---,0.00,0.00,VWS V14.01,2013-01-04 06:23:00,
2013-01-04 00:28:00,18.6,14.3,30.18,SW,235,10.0,12.0,83,0.00,,---,0.00,0.00,VWS V14.01,2013-01-04 06:28:00,
2013-01-04 00:33:00,18.8,14.5,30.18,WSW,240,10.0,10.0,83,0.00,,---,0.00,0.00,VWS V14.01,2013-01-04 06:33:00,
2013-01-04 00:38:00,19.3,15.0,30.18,WSW,242,12.0,15.0,83,0.00,,---,0.00,0.00,VWS V14.01,2013-01-04 06:38:00,
2013-01-04 00:43:00,19.5,14.9,30.17,WSW,238,9.0,15.0,82,0.00,,---,0.00,0.00,VWS V14.01,2013-01-04 06:43:00,
2013-01-04 00:48:00,19.7,15.1,30.17,WSW,242,15.0,15.0,82,0.00,,---,0.00,0.00,VWS V14.01,2013-01-04 06:48:00,
2013-01-04 00:53:00,19.9,15.3,30.17,WSW,246,16.0,20.0,82,0.00,,---,0.00,0.00,VWS V14.01,2013-01-04 06:53:00,
2013-01-04 00:58:00,20.2,15.3,30.16,SW,230,14.0,20.0,81,0.00,,---,0.00,0.00,VWS V14.01,2013-01-04 06:58:00,
2013-01-04 01:03:00,20.3,15.4,30.16,SW,229,15.0,15.0,81,0.00,,---,0.00,0.00,VWS V14.01,2013-01-04 07:03:00,
2013-01-04 01:08:00,20.6,15.7,30.15,SW,229,14.0,19.0,81,0.00,,---,0.00,0.00,VWS V14.01,2013-01-04 07:08:00,
2013-01-04 01:13:00,20.9,15.7,30.15,SW,231,14.0,20.0,80,0.00,,---,0.00,0.00,VWS V14.01,2013-01-04 07:13:00,
2013-01-04 01:18:00,20.8,15.6,30.15,SW,236,17.0,17.0,80,0.00,,---,0.00,0.00,VWS V14.01,2013-01-04 07:18:00,
2013-01-04 01:23:00,20.7,15.5,30.15,SW,228,14.0,17.0,80,0.00,,---,0.00,0.00,VWS V14.01,2013-01-04 07:23:00,
2013-01-04 01:28:00,20.9,15.7,30.14,SW,229,17.0,19.0,80,0.00,,---,0.00,0.00,VWS V14.01,2013-01-04 07:28:00,
2013-01-04 01:33:00,21.3,16.1,30.14,WSW,238,11.0,16.0,80,0.00,,---,0.00,0.00,VWS V14.01,2013-01-04 07:33:00,
2013-01-04 01:38:00,21.6,16.1,30.14,SW,227,17.0,19.0,79,0.00,,---,0.00,0.00,VWS V14.01,2013-01-04 07:38:00,
2013-01-04 01:43:00,21.6,16.1,30.14,SW,236,11.0,19.0,79,0.00,,---,0.00,0.00,VWS V14.01,2013-01-04 07:43:00,
2013-01-04 01:48:00,21.6,16.1,30.13,SW,230,15.0,15.0,79,0.00,,---,0.00,0.00,VWS V14.01,2013-01-04 07:48:00,
2013-01-04 01:53:00,21.8,16.3,30.13,WSW,241,11.0,21.0,79,0.00,,---,0.00,0.00,VWS V14.01,2013-01-04 07:53:00,
2013-01-04 01:58:00,21.8,16.0,30.13,SW,236,14.0,21.0,78,0.00,,---,0.00,0.00,VWS V14.01,2013-01-04 07:58:00,
2013-01-04 02:03:00,21.8,16.0,30.13,WSW,239,9.0,10.0,78,0.00,,---,0.00,0.00,VWS V14.01,2013-01-04 08:03:00,
2013-01-04 02:08:00,21.6,15.8,30.14,WSW,240,11.0,14.0,78,0.00,,---,0.00,0.00,VWS V14.01,2013-01-04 08:08:00,
2013-01-04 02:13:00,21.7,16.2,30.13,WSW,244,13.0,16.0,79,0.00,,---,0.00,0.00,VWS V14.01,2013-01-04 08:13:00,
2013-01-04 02:18:00,21.9,16.4,30.13,WSW,241,15.0,15.0,79,0.00,,---,0.00,0.00,VWS V14.01,2013-01-04 08:18:00,
2013-01-04 02:23:00,22.2,16.4,30.14,WSW,252,18.0,20.0,78,0.00,,---,0.00,0.00,VWS V14.01,2013-01-04 08:23:00,
2013-01-04 02:28:00,22.6,16.8,30.14,WSW,247,14.0,20.0,78,0.00,,---,0.00,0.00,VWS V14.01,2013-01-04 08:28:00,
2013-01-04 02:33:00,22.8,16.7,30.15,West,266,12.0,12.0,77,0.00,,---,0.00,0.00,VWS V14.01,2013-01-04 08:33:00,
2013-01-04 02:38:00,22.6,16.5,30.16,West,279,12.0,14.0,77,0.00,,---,0.00,0.00,VWS V14.01,2013-01-04 08:38:00,
2013-01-04 02:43:00,22.4,16.3,30.16,West,276,15.0,17.0,77,0.00,,---,0.00,0.00,VWS V14.01,2013-01-04 08:43:00,
2013-01-04 02:48:00,22.4,16.0,30.17,West,260,10.0,12.0,76,0.00,,---,0.00,0.00,VWS V14.01,2013-01-04 08:48:00,
2013-01-04 02:53:00,22.2,16.1,30.16,West,277,16.0,18.0,77,0.00,,---,0.00,0.00,VWS V14.01,2013-01-04 08:53:00,
2013-01-04 02:58:00,22.2,16.1,30.16,West,270,10.0,19.0,77,0.00,,---,0.00,0.00,VWS V14.01,2013-01-04 08:58:00,
2013-01-04 03:03:00,22.3,16.2,30.16,West,269,12.0,13.0,77,0.00,,---,0.00,0.00,VWS V14.01,2013-01-04 09:03:00,
2013-01-04 03:08:00,22.2,16.1,30.16,WSW,256,17.0,17.0,77,0.00,,---,0.00,0.00,VWS V14.01,2013-01-04 09:08:00,
2013-01-04 03:13:00,22.1,15.7,30.17,West,267,10.0,18.0,76,0.00,,---,0.00,0.00,VWS V14.01,2013-01-04 09:13:00,
2013-01-04 03:18:00,21.7,15.6,30.17,West,271,6.0,12.0,77,0.00,,---,0.00,0.00,VWS V14.01,2013-01-04 09:18:00,
2013-01-04 03:23:00,21.5,15.4,30.17,WSW,250,13.0,15.0,77,0.00,,---,0.00,0.00,VWS V14.01,2013-01-04 09:23:00,
2013-01-04 03:28:00,21.2,15.1,30.16,WSW,250,15.0,15.0,77,0.00,,---,0.00,0.00,VWS V14.01,2013-01-04 09:28:00,
2013-01-04 03:33:00,21.0,15.2,30.16,WSW,244,7.0,13.0,78,0.00,,---,0.00,0.00,VWS V14.01,2013-01-04 09:33:00,
2013-01-04 03:38:00,20.7,14.9,30.16,WSW,242,8.0,13.0,78,0.00,,---,0.00,0.00,VWS V14.01,2013-01-04 09:38:00,
2013-01-04 03:43:00,20.1,14.4,30.15,SW,236,11.0,13.0,78,0.00,,---,0.00,0.00,VWS V14.01,2013-01-04 09:43:00,
2013-01-04 03:48:00,19.9,14.4,30.14,SW,230,12.0,12.0,79,0.00,,---,0.00,0.00,VWS V14.01,2013-01-04 09:48:00,
2013-01-04 03:53:00,20.1,14.9,30.14,SW,229,13.0,16.0,80,0.00,,---,0.00,0.00,VWS V14.01,2013-01-04 09:53:00,
2013-01-04 03:58:00,20.2,14.7,30.13,SW,229,12.0,16.0,79,0.00,,---,0.00,0.00,VWS V14.01,2013-01-04 09:58:00,
2013-01-04 04:03:00,19.8,14.4,30.13,SW,231,13.0,16.0,79,0.00,,---,0.00,0.00,VWS V14.01,2013-01-04 10:03:00,
2013-01-04 04:08:00,19.8,14.4,30.13,WSW,240,11.0,18.0,79,0.00,,---,0.00,0.00,VWS V14.01,2013-01-04 10:08:00,
2013-01-04 04:13:00,19.7,14.3,30.13,SW,232,12.0,18.0,79,0.00,,---,0.00,0.00,VWS V14.01,2013-01-04 10:13:00,
2013-01-04 04:18:00,19.7,14.3,30.12,SW,225,14.0,16.0,79,0.00,,---,0.00,0.00,VWS V14.01,2013-01-04 10:18:00,
2013-01-04 04:23:00,19.8,14.6,30.12,SW,234,16.0,18.0,80,0.00,,---,0.00,0.00,VWS V14.01,2013-01-04 10:23:00,
2013-01-04 04:28:00,19.9,14.4,30.12,SW,234,11.0,19.0,79,0.00,,---,0.00,0.00,VWS V14.01,2013-01-04 10:28:00,
2013-01-04 04:33:00,19.8,14.4,30.13,WSW,244,11.0,13.0,79,0.00,,---,0.00,0.00,VWS V14.01,2013-01-04 10:33:00,
2013-01-04 04:38:00,19.6,14.2,30.13,WSW,245,9.0,13.0,79,0.00,,---,0.00,0.00,VWS V14.01,2013-01-04 10:38:00,
2013-01-04 04:43:00,19.4,16.2,30.14,WSW,254,11.0,13.0,87,0.00,,---,0.00,0.00,VWS V14.01,2013-01-04 10:43:00,
2013-01-04 04:48:00,19.6,14.4,30.13,WSW,252,13.0,13.0,80,0.00,,---,0.00,0.00,VWS V14.01,2013-01-04 10:48:00,
2013-01-04 04:53:00,19.7,14.3,30.13,WSW,244,16.0,16.0,79,0.00,,---,0.00,0.00,VWS V14.01,2013-01-04 10:53:00,
2013-01-04 04:58:00,19.7,14.3,30.13,WSW,244,14.0,16.0,79,0.00,,---,0.00,0.00,VWS V14.01,2013-01-04 10:58:00,
2013-01-04 05:03:00,19.7,14.3,30.13,WSW,244,11.0,12.0,79,0.00,,---,0.00,0.00,VWS V14.01,2013-01-04 11:03:00,
2013-01-04 05:08:00,19.7,14.3,30.12,WSW,240,11.0,15.0,79,0.00,,---,0.00,0.00,VWS V14.01,2013-01-04 11:08:00,
2013-01-04 05:13:00,19.7,14.3,30.12,WSW,248,14.0,15.0,79,0.00,,---,0.00,0.00,VWS V14.01,2013-01-04 11:13:00,
2013-01-04 05:18:00,19.8,14.4,30.12,WSW,248,14.0,15.0,79,0.00,,---,0.00,0.00,VWS V14.01,2013-01-04 11:18:00,
2013-01-04 05:23:00,20.0,14.3,30.12,WSW,244,10.0,16.0,78,0.00,,---,0.00,0.00,VWS V14.01,2013-01-04 11:23:00,
2013-01-04 05:28:00,20.0,14.3,30.12,SW,236,12.0,17.0,78,0.00,,---,0.00,0.00,VWS V14.01,2013-01-04 11:28:00,
2013-01-04 05:33:00,20.1,14.4,30.12,WSW,241,13.0,16.0,78,0.00,,---,0.00,0.00,VWS V14.01,2013-01-04 11:33:00,
2013-01-04 05:38:00,20.3,14.6,30.12,WSW,245,12.0,18.0,78,0.00,,---,0.00,0.00,VWS V14.01,2013-01-04 11:38:00,
2013-01-04 05:43:00,20.3,14.3,30.12,WSW,237,15.0,18.0,77,0.00,,---,0.00,0.00,VWS V14.01,2013-01-04 11:43:00,
2013-01-04 05:48:00,20.4,14.4,30.12,WSW,245,14.0,15.0,77,0.00,,---,0.00,0.00,VWS V14.01,2013-01-04 11:48:00,
2013-01-04 05:53:00,20.4,14.4,30.11,WSW,241,13.0,16.0,77,0.00,,---,0.00,0.00,VWS V14.01,2013-01-04 11:53:00,
2013-01-04 05:58:00,20.3,14.3,30.12,WSW,250,18.0,20.0,77,0.00,,---,0.00,0.00,VWS V14.01,2013-01-04 11:58:00,
2013-01-04 06:03:00,20.3,14.3,30.11,WSW,241,13.0,15.0,77,0.00,,---,0.00,0.00,VWS V14.01,2013-01-04 12:03:00,
2013-01-04 06:08:00,20.2,14.2,30.11,WSW,241,15.0,19.0,77,0.00,,---,0.00,0.00,VWS V14.01,2013-01-04 12:08:00,
2013-01-04 06:13:00,20.1,14.1,30.11,WSW,245,13.0,20.0,77,0.00,,---,0.00,0.00,VWS V14.01,2013-01-04 12:13:00,
2013-01-04 06:18:00,20.0,14.0,30.11,WSW,250,16.0,16.0,77,0.00,,---,0.00,0.00,VWS V14.01,2013-01-04 12:18:00,
2013-01-04 06:23:00,20.1,14.1,30.12,West,277,7.0,16.0,77,0.00,,---,0.00,0.00,VWS V14.01,2013-01-04 12:23:00,
2013-01-04 06:28:00,20.3,14.0,30.12,WSW,258,12.0,16.0,76,0.00,,---,0.00,0.00,VWS V14.01,2013-01-04 12:28:00,
2013-01-04 06:33:00,20.4,14.1,30.13,WSW,252,10.0,14.0,76,0.00,,---,0.00,0.00,VWS V14.01,2013-01-04 12:33:00,
2013-01-04 06:38:00,20.3,14.0,30.13,WSW,248,13.0,14.0,76,0.00,,---,0.00,0.00,VWS V14.01,2013-01-04 12:38:00,
2013-01-04 06:44:00,20.2,13.6,30.13,West,259,13.0,15.0,75,0.00,,---,0.00,0.00,VWS V14.01,2013-01-04 12:44:00,
2013-01-04 06:49:00,20.1,13.5,30.13,WSW,254,10.0,12.0,75,0.00,,---,0.00,0.00,VWS V14.01,2013-01-04 12:49:00,
2013-01-04 06:54:00,20.0,13.4,30.13,WSW,253,11.0,13.0,75,0.00,,---,0.00,0.00,VWS V14.01,2013-01-04 12:54:00,
2013-01-04 06:59:00,19.7,13.1,30.13,WSW,249,9.0,13.0,75,0.00,,---,0.00,0.00,VWS V14.01,2013-01-04 12:59:00,
2013-01-04 07:04:00,19.6,13.0,30.13,WSW,252,9.0,12.0,75,0.00,,---,0.00,0.00,VWS V14.01,2013-01-04 13:04:00,
2013-01-04 07:09:00,19.4,13.1,30.13,West,263,11.0,12.0,76,0.00,,---,0.00,0.00,VWS V14.01,2013-01-04 13:09:00,
2013-01-04 07:14:00,19.5,13.2,30.13,WSW,257,11.0,13.0,76,0.00,,---,0.00,0.00,VWS V14.01,2013-01-04 13:14:00,
2013-01-04 07:19:00,19.4,13.1,30.13,WSW,254,6.0,9.0,76,0.00,,---,0.00,0.00,VWS V14.01,2013-01-04 13:19:00,
2013-01-04 07:24:00,19.3,13.0,30.14,WSW,253,6.0,9.0,76,0.00,,---,0.00,0.00,VWS V14.01,2013-01-04 13:24:00,
2013-01-04 07:29:00,19.1,12.8,30.14,WSW,250,6.0,10.0,76,0.00,,---,0.00,0.00,VWS V14.01,2013-01-04 13:29:00,
2013-01-04 07:34:00,19.1,12.8,30.14,WSW,254,7.0,9.0,76,0.00,,---,0.00,0.00,VWS V14.01,2013-01-04 13:34:00,
2013-01-04 07:39:00,19.1,12.8,30.14,WSW,253,7.0,10.0,76,0.00,,---,0.00,0.00,VWS V14.01,2013-01-04 13:39:00,
2013-01-04 07:44:00,18.9,12.6,30.14,WSW,250,6.0,10.0,76,0.00,,---,0.00,0.00,VWS V14.01,2013-01-04 13:44:00,
2013-01-04 07:49:00,18.7,12.4,30.14,WSW,250,5.0,6.0,76,0.00,,---,0.00,0.00,VWS V14.01,2013-01-04 13:49:00,
2013-01-04 07:54:00,18.5,12.2,30.14,WSW,250,5.0,7.0,76,0.00,,---,0.00,5.00,VWS V14.01,2013-01-04 13:54:00,
2013-01-04 07:59:00,18.4,12.1,30.15,WSW,250,4.0,7.0,76,0.00,,---,0.00,9.00,VWS V14.01,2013-01-04 13:59:00,
2013-01-04 08:04:00,18.3,12.0,30.15,WSW,250,3.0,4.0,76,0.00,,---,0.00,16.00,VWS V14.01,2013-01-04 14:04:00,
2013-01-04 08:09:00,18.2,11.9,30.15,WSW,252,5.0,6.0,76,0.00,,---,0.00,25.00,VWS V14.01,2013-01-04 14:09:00,
2013-01-04 08:14:00,18.2,11.9,30.15,West,261,6.0,6.0,76,0.00,,---,0.00,35.00,VWS V14.01,2013-01-04 14:14:00,
2013-01-04 08:19:00,18.1,11.8,30.15,West,259,6.0,7.0,76,0.00,,---,0.00,46.00,VWS V14.01,2013-01-04 14:19:00,
2013-01-04 08:24:00,18.1,11.8,30.15,WSW,258,6.0,7.0,76,0.00,,---,0.00,58.00,VWS V14.01,2013-01-04 14:24:00,
2013-01-04 08:29:00,18.0,11.7,30.15,WSW,257,5.0,7.0,76,0.00,,---,0.00,72.00,VWS V14.01,2013-01-04 14:29:00,
2013-01-04 08:34:00,18.1,12.1,30.15,WSW,257,6.0,7.0,77,0.00,,---,0.00,83.00,VWS V14.01,2013-01-04 14:34:00,
2013-01-04 08:39:00,18.2,11.9,30.15,WSW,254,6.0,8.0,76,0.00,,---,0.00,97.00,VWS V14.01,2013-01-04 14:39:00,
2013-01-04 08:44:00,18.3,12.0,30.15,WSW,252,5.0,9.0,76,0.00,,---,0.00,109.00,VWS V14.01,2013-01-04 14:44:00,
2013-01-04 08:49:00,18.5,12.2,30.16,WSW,254,9.0,9.0,76,0.00,,---,0.00,121.00,VWS V14.01,2013-01-04 14:49:00,
2013-01-04 08:54:00,18.8,12.5,30.15,WSW,255,7.0,10.0,76,0.00,,---,0.00,134.00,VWS V14.01,2013-01-04 14:54:00,
2013-01-04 08:59:00,19.0,12.4,30.16,WSW,251,10.0,10.0,75,0.00,,---,0.00,146.00,VWS V14.01,2013-01-04 14:59:00,
2013-01-04 09:04:00,19.2,12.6,30.16,West,262,10.0,10.0,75,0.00,,---,0.00,158.00,VWS V14.01,2013-01-04 15:04:00,
2013-01-04 09:09:00,19.4,12.8,30.16,West,264,7.0,12.0,75,0.00,,---,0.00,169.00,VWS V14.01,2013-01-04 15:09:00,
2013-01-04 09:14:00,19.6,13.0,30.16,WSW,250,9.0,12.0,75,0.00,,---,0.00,181.00,VWS V14.01,2013-01-04 15:14:00,
2013-01-04 09:19:00,19.7,13.1,30.16,WSW,254,6.0,10.0,75,0.00,,---,0.00,193.00,VWS V14.01,2013-01-04 15:19:00,
2013-01-04 09:24:00,19.8,12.9,30.17,West,264,7.0,12.0,74,0.00,,---,0.00,206.00,VWS V14.01,2013-01-04 15:24:00,
2013-01-04 09:29:00,20.1,13.2,30.17,West,259,7.0,12.0,74,0.00,,---,0.00,216.00,VWS V14.01,2013-01-04 15:29:00,
2013-01-04 09:34:00,20.3,13.4,30.17,West,259,8.0,9.0,74,0.00,,---,0.00,229.00,VWS V14.01,2013-01-04 15:34:00,
2013-01-04 09:39:00,20.5,13.5,30.17,WSW,254,8.0,11.0,74,0.00,,---,0.00,241.00,VWS V14.01,2013-01-04 15:39:00,
2013-01-04 09:44:00,20.7,13.7,30.18,West,263,7.0,11.0,74,0.00,,---,0.00,250.00,VWS V14.01,2013-01-04 15:44:00,
2013-01-04 09:49:00,20.9,13.9,30.18,WSW,252,7.0,7.0,74,0.00,,---,0.00,262.00,VWS V14.01,2013-01-04 15:49:00,
2013-01-04 09:54:00,21.2,13.9,30.18,West,263,8.0,12.0,73,0.00,,---,0.00,272.00,VWS V14.01,2013-01-04 15:54:00,
2013-01-04 09:59:00,21.4,14.1,30.18,WSW,256,9.0,12.0,73,0.00,,---,0.00,283.00,VWS V14.01,2013-01-04 15:59:00,
2013-01-04 10:04:00,21.7,14.4,30.18,WSW,256,10.0,10.0,73,0.00,,---,0.00,294.00,VWS V14.01,2013-01-04 16:04:00,
2013-01-04 10:09:00,21.8,14.5,30.18,West,263,10.0,10.0,73,0.00,,---,0.00,304.00,VWS V14.01,2013-01-04 16:09:00,
2013-01-04 10:14:00,22.1,14.5,30.18,West,261,6.0,11.0,72,0.00,,---,0.00,315.00,VWS V14.01,2013-01-04 16:14:00,
2013-01-04 10:19:00,22.3,15.0,30.19,West,263,6.0,7.0,73,0.00,,---,0.00,323.00,VWS V14.01,2013-01-04 16:19:00,
2013-01-04 10:24:00,22.7,15.1,30.19,WSW,257,6.0,10.0,72,0.00,,---,0.00,332.00,VWS V14.01,2013-01-04 16:24:00,
2013-01-04 10:29:00,23.1,15.4,30.19,WSW,246,10.0,11.0,72,0.00,,---,0.00,341.00,VWS V14.01,2013-01-04 16:29:00,
2013-01-04 10:34:00,23.4,15.7,30.19,WSW,253,9.0,11.0,72,0.00,,---,0.00,350.00,VWS V14.01,2013-01-04 16:34:00,
2013-01-04 10:39:00,23.7,16.0,30.19,WSW,254,9.0,11.0,72,0.00,,---,0.00,360.00,VWS V14.01,2013-01-04 16:39:00,
2013-01-04 10:44:00,23.9,15.9,30.19,WSW,252,9.0,13.0,71,0.00,,---,0.00,367.00,VWS V14.01,2013-01-04 16:44:00,
2013-01-04 10:49:00,24.1,16.1,30.19,WSW,253,10.0,12.0,71,0.00,,---,0.00,376.00,VWS V14.01,2013-01-04 16:49:00,
2013-01-04 10:54:00,24.4,16.4,30.19,WSW,253,10.0,14.0,71,0.00,,---,0.00,381.00,VWS V14.01,2013-01-04 16:54:00,
2013-01-04 10:59:00,24.8,16.4,30.19,WSW,254,12.0,14.0,70,0.00,,---,0.00,388.00,VWS V14.01,2013-01-04 16:59:00,
2013-01-04 11:04:00,25.1,16.7,30.19,West,260,8.0,9.0,70,0.00,,---,0.00,396.00,VWS V14.01,2013-01-04 17:04:00,
2013-01-04 11:09:00,25.3,16.9,30.19,West,265,6.0,10.0,70,0.00,,---,0.00,403.00,VWS V14.01,2013-01-04 17:09:00,
2013-01-04 11:14:00,25.6,17.2,30.19,West,269,5.0,11.0,70,0.00,,---,0.00,408.00,VWS V14.01,2013-01-04 17:14:00,
2013-01-04 11:19:00,26.1,18.0,30.19,West,269,5.0,7.0,71,0.00,,---,0.00,415.00,VWS V14.01,2013-01-04 17:19:00,
2013-01-04 11:24:00,26.7,18.2,30.18,West,262,6.0,10.0,70,0.00,,---,0.00,418.00,VWS V14.01,2013-01-04 17:24:00,
2013-01-04 11:29:00,27.1,18.6,30.19,West,267,6.0,10.0,70,0.00,,---,0.00,425.00,VWS V14.01,2013-01-04 17:29:00,
2013-01-04 11:34:00,27.6,18.8,30.19,West,272,2.0,7.0,69,0.00,,---,0.00,427.00,VWS V14.01,2013-01-04 17:34:00,
2013-01-04 11:39:00,28.0,19.2,30.18,West,277,3.0,10.0,69,0.00,,---,0.00,431.00,VWS V14.01,2013-01-04 17:39:00,
2013-01-04 11:44:00,28.1,18.9,30.18,West,276,7.0,11.0,68,0.00,,---,0.00,434.00,VWS V14.01,2013-01-04 17:44:00,
2013-01-04 11:49:00,28.3,19.1,30.18,West,271,5.0,9.0,68,0.00,,---,0.00,438.00,VWS V14.01,2013-01-04 17:49:00,
2013-01-04 11:54:00,28.4,19.2,30.18,West,269,6.0,10.0,68,0.00,,---,0.00,441.00,VWS V14.01,2013-01-04 17:54:00,
2013-01-04 11:59:00,28.2,18.3,30.18,West,277,11.0,13.0,66,0.00,,---,0.00,443.00,VWS V14.01,2013-01-04 17:59:00,
2013-01-04 12:04:00,28.1,18.2,30.18,WNW,294,5.0,10.0,66,0.00,,---,0.00,445.00,VWS V14.01,2013-01-04 18:04:00,
2013-01-04 12:09:00,28.1,18.6,30.18,WNW,290,6.0,10.0,67,0.00,,---,0.00,446.00,VWS V14.01,2013-01-04 18:09:00,
2013-01-04 12:14:00,28.1,18.2,30.18,West,274,7.0,12.0,66,0.00,,---,0.00,448.00,VWS V14.01,2013-01-04 18:14:00,
2013-01-04 12:19:00,28.1,18.6,30.18,WNW,286,6.0,10.0,67,0.00,,---,0.00,448.00,VWS V14.01,2013-01-04 18:19:00,
2013-01-04 12:24:00,28.1,18.6,30.17,West,281,9.0,12.0,67,0.00,,---,0.00,448.00,VWS V14.01,2013-01-04 18:24:00,
2013-01-04 12:29:00,28.1,18.2,30.17,WNW,287,7.0,12.0,66,0.00,,---,0.00,448.00,VWS V14.01,2013-01-04 18:29:00,
2013-01-04 12:34:00,28.2,19.0,30.17,West,269,6.0,9.0,68,0.00,,---,0.00,448.00,VWS V14.01,2013-01-04 18:34:00,
2013-01-04 12:39:00,28.7,19.5,30.17,West,275,7.0,9.0,68,0.00,,---,0.00,448.00,VWS V14.01,2013-01-04 18:39:00,
2013-01-04 12:44:00,28.9,20.0,30.17,West,267,6.0,9.0,69,0.00,,---,0.00,446.00,VWS V14.01,2013-01-04 18:44:00,
2013-01-04 12:49:00,29.0,20.1,30.17,West,276,7.0,7.0,69,0.00,,---,0.00,446.00,VWS V14.01,2013-01-04 18:49:00,
2013-01-04 12:54:00,29.2,20.3,30.17,West,277,6.0,9.0,69,0.00,,---,0.00,443.00,VWS V14.01,2013-01-04 18:54:00,
2013-01-04 12:59:00,29.4,20.2,30.17,West,272,10.0,10.0,68,0.00,,---,0.00,441.00,VWS V14.01,2013-01-04 18:59:00,
2013-01-04 13:04:00,29.5,20.3,30.17,West,277,5.0,9.0,68,0.00,,---,0.00,438.00,VWS V14.01,2013-01-04 19:04:00,
2013-01-04 13:09:00,29.7,20.5,30.17,WNW,285,7.0,9.0,68,0.00,,---,0.00,434.00,VWS V14.01,2013-01-04 19:09:00,
2013-01-04 13:14:00,29.8,20.2,30.17,WNW,284,8.0,9.0,67,0.00,,---,0.00,429.00,VWS V14.01,2013-01-04 19:14:00,
2013-01-04 13:19:00,29.7,20.1,30.16,WNW,291,10.0,10.0,67,0.00,,---,0.00,425.00,VWS V14.01,2013-01-04 19:19:00,
2013-01-04 13:24:00,29.5,19.9,30.16,West,274,6.0,11.0,67,0.00,,---,0.00,422.00,VWS V14.01,2013-01-04 19:24:00,
2013-01-04 13:29:00,29.4,20.2,30.16,West,276,3.0,11.0,68,0.00,,---,0.00,417.00,VWS V14.01,2013-01-04 19:29:00,
2013-01-04 13:34:00,29.5,20.6,30.16,West,267,5.0,10.0,69,0.00,,---,0.00,411.00,VWS V14.01,2013-01-04 19:34:00,
2013-01-04 13:39:00,29.4,20.5,30.16,West,272,5.0,10.0,69,0.00,,---,0.00,406.00,VWS V14.01,2013-01-04 19:39:00,
2013-01-04 13:44:00,29.6,21.0,30.16,West,267,4.0,10.0,70,0.00,,---,0.00,399.00,VWS V14.01,2013-01-04 19:44:00,
2013-01-04 13:49:00,29.7,20.8,30.16,West,277,4.0,6.0,69,0.00,,---,0.00,392.00,VWS V14.01,2013-01-04 19:49:00,
2013-01-04 13:54:00,29.9,21.3,30.16,West,271,3.0,7.0,70,0.00,,---,0.00,387.00,VWS V14.01,2013-01-04 19:54:00,
2013-01-04 13:59:00,29.9,21.0,30.16,West,273,7.0,7.0,69,0.00,,---,0.00,380.00,VWS V14.01,2013-01-04 19:59:00,
2013-01-04 14:04:00,29.9,21.0,30.16,West,271,3.0,6.0,69,0.00,,---,0.00,373.00,VWS V14.01,2013-01-04 20:04:00,
2013-01-04 14:09:00,29.9,21.0,30.16,West,276,4.0,9.0,69,0.00,,---,0.00,364.00,VWS V14.01,2013-01-04 20:09:00,
2013-01-04 14:14:00,30.0,21.1,30.17,West,271,4.0,9.0,69,0.00,,---,0.00,357.00,VWS V14.01,2013-01-04 20:14:00,
2013-01-04 14:19:00,30.1,21.2,30.17,West,269,5.0,6.0,69,0.00,,---,0.00,348.00,VWS V14.01,2013-01-04 20:19:00,
2013-01-04 14:24:00,30.0,21.4,30.17,West,275,4.0,8.0,70,0.00,,---,0.00,339.00,VWS V14.01,2013-01-04 20:24:00,
2013-01-04 14:29:00,30.1,20.8,30.17,West,267,5.0,8.0,68,0.00,,---,0.00,330.00,VWS V14.01,2013-01-04 20:29:00,
2013-01-04 14:34:00,30.1,20.8,30.17,West,276,6.0,6.0,68,0.00,,---,0.00,322.00,VWS V14.01,2013-01-04 20:34:00,
2013-01-04 14:39:00,30.1,20.8,30.16,West,266,5.0,8.0,68,0.00,,---,0.00,311.00,VWS V14.01,2013-01-04 20:39:00,
2013-01-04 14:44:00,30.1,20.8,30.16,West,273,5.0,9.0,68,0.00,,---,0.00,302.00,VWS V14.01,2013-01-04 20:44:00,
2013-01-04 14:49:00,30.1,20.8,30.16,West,269,2.0,5.0,68,0.00,,---,0.00,292.00,VWS V14.01,2013-01-04 20:49:00,
2013-01-04 14:54:00,30.2,20.6,30.16,West,273,4.0,10.0,67,0.00,,---,0.00,285.00,VWS V14.01,2013-01-04 20:54:00,
2013-01-04 14:59:00,30.1,20.5,30.16,West,277,4.0,10.0,67,0.00,,---,0.00,274.00,VWS V14.01,2013-01-04 20:59:00,
2013-01-04 15:04:00,30.0,20.7,30.16,West,277,5.0,5.0,68,0.00,,---,0.00,264.00,VWS V14.01,2013-01-04 21:04:00,
2013-01-04 15:09:00,29.9,20.6,30.16,West,277,6.0,6.0,68,0.00,,---,0.00,251.00,VWS V14.01,2013-01-04 21:09:00,
2013-01-04 15:14:00,29.8,20.2,30.16,West,280,3.0,6.0,67,0.00,,---,0.00,237.00,VWS V14.01,2013-01-04 21:14:00,
2013-01-04 15:19:00,29.7,20.1,30.16,West,281,4.0,4.0,67,0.00,,---,0.00,223.00,VWS V14.01,2013-01-04 21:19:00,
2013-01-04 15:24:00,29.6,20.4,30.16,West,281,1.0,4.0,68,0.00,,---,0.00,207.00,VWS V14.01,2013-01-04 21:24:00,
2013-01-04 15:29:00,29.8,20.9,30.16,West,280,1.0,4.0,69,0.00,,---,0.00,197.00,VWS V14.01,2013-01-04 21:29:00,
2013-01-04 15:34:00,29.9,21.0,30.16,West,280,0.0,1.0,69,0.00,,---,0.00,185.00,VWS V14.01,2013-01-04 21:34:00,
2013-01-04 15:39:00,30.1,21.2,30.17,West,281,2.0,2.0,69,0.00,,---,0.00,169.00,VWS V14.01,2013-01-04 21:39:00,
2013-01-04 15:44:00,30.1,20.5,30.17,West,281,2.0,4.0,67,0.00,,---,0.00,134.00,VWS V14.01,2013-01-04 21:44:00,
2013-01-04 15:49:00,29.9,20.3,30.17,West,281,2.0,2.0,67,0.00,,---,0.00,128.00,VWS V14.01,2013-01-04 21:49:00,
2013-01-04 15:54:00,29.9,19.9,30.17,West,281,2.0,3.0,66,0.00,,---,0.00,109.00,VWS V14.01,2013-01-04 21:54:00,
2013-01-04 15:59:00,29.8,19.8,30.17,West,280,2.0,3.0,66,0.00,,---,0.00,77.00,VWS V14.01,2013-01-04 21:59:00,
2013-01-04 16:04:00,29.4,19.5,30.17,West,281,1.0,2.0,66,0.00,,---,0.00,81.00,VWS V14.01,2013-01-04 22:04:00,
2013-01-04 16:09:00,29.2,20.0,30.17,West,280,1.0,2.0,68,0.00,,---,0.00,72.00,VWS V14.01,2013-01-04 22:09:00,
2013-01-04 16:14:00,29.0,19.4,30.17,West,281,2.0,3.0,67,0.00,,---,0.00,60.00,VWS V14.01,2013-01-04 22:14:00,
2013-01-04 16:19:00,28.8,19.2,30.17,West,280,2.0,3.0,67,0.00,,---,0.00,49.00,VWS V14.01,2013-01-04 22:19:00,
2013-01-04 16:24:00,28.5,18.6,30.17,West,280,3.0,3.0,66,0.00,,---,0.00,37.00,VWS V14.01,2013-01-04 22:24:00,
2013-01-04 16:29:00,28.3,18.4,30.17,West,281,1.0,3.0,66,0.00,,---,0.00,28.00,VWS V14.01,2013-01-04 22:29:00,
2013-01-04 16:34:00,28.0,18.5,30.17,West,281,0.0,0.0,67,0.00,,---,0.00,21.00,VWS V14.01,2013-01-04 22:34:00,
2013-01-04 16:39:00,27.9,18.4,30.17,West,281,0.0,0.0,67,0.00,,---,0.00,14.00,VWS V14.01,2013-01-04 22:39:00,
2013-01-04 16:44:00,27.8,18.3,30.17,West,280,1.0,1.0,67,0.00,,---,0.00,11.00,VWS V14.01,2013-01-04 22:44:00,
2013-01-04 16:49:00,27.6,18.4,30.17,West,281,0.0,0.0,68,0.00,,---,0.00,11.00,VWS V14.01,2013-01-04 22:49:00,
2013-01-04 16:54:00,27.5,18.3,30.17,West,281,0.0,0.0,68,0.00,,---,0.00,5.00,VWS V14.01,2013-01-04 22:54:00,
2013-01-04 16:59:00,27.3,18.1,30.17,West,280,0.0,0.0,68,0.00,,---,0.00,5.00,VWS V14.01,2013-01-04 22:59:00,
2013-01-04 17:04:00,27.1,18.0,30.17,West,280,0.0,0.0,68,0.00,,---,0.00,0.00,VWS V14.01,2013-01-04 23:04:00,
2013-01-04 17:09:00,26.9,18.1,30.17,West,281,0.0,0.0,69,0.00,,---,0.00,0.00,VWS V14.01,2013-01-04 23:09:00,
2013-01-04 17:14:00,26.8,18.3,30.16,West,281,0.0,0.0,70,0.00,,---,0.00,0.00,VWS V14.01,2013-01-04 23:14:00,
2013-01-04 17:19:00,26.6,18.5,30.17,West,281,0.0,0.0,71,0.00,,---,0.00,0.00,VWS V14.01,2013-01-04 23:19:00,
2013-01-04 17:24:00,26.3,18.5,30.17,West,280,0.0,0.0,72,0.00,,---,0.00,0.00,VWS V14.01,2013-01-04 23:24:00,
2013-01-04 17:29:00,26.0,17.9,30.17,West,280,0.0,0.0,71,0.00,,---,0.00,0.00,VWS V14.01,2013-01-04 23:29:00,
2013-01-04 17:34:00,25.6,17.5,30.17,West,281,0.0,0.0,71,0.00,,---,0.00,0.00,VWS V14.01,2013-01-04 23:34:00,
2013-01-04 17:39:00,25.3,17.5,30.17,West,281,0.0,0.0,72,0.00,,---,0.00,0.00,VWS V14.01,2013-01-04 23:39:00,
2013-01-04 17:44:00,24.9,17.5,30.17,West,280,1.0,2.0,73,0.00,,---,0.00,0.00,VWS V14.01,2013-01-04 23:44:00,
2013-01-04 17:49:00,24.2,17.1,30.17,West,281,0.0,0.0,74,0.00,,---,0.00,0.00,VWS V14.01,2013-01-04 23:49:00,
2013-01-04 17:54:00,23.9,17.1,30.17,West,280,0.0,0.0,75,0.00,,---,0.00,0.00,VWS V14.01,2013-01-04 23:54:00,
2013-01-04 17:59:00,23.6,16.9,30.17,West,281,0.0,0.0,75,0.00,,---,0.00,0.00,VWS V14.01,2013-01-04 23:59:00,
2013-01-04 18:04:00,23.4,17.0,30.17,West,280,0.0,0.0,76,0.00,,---,0.00,0.00,VWS V14.01,2013-01-05 00:04:00,
2013-01-04 18:09:00,23.3,16.9,30.17,West,281,0.0,0.0,76,0.00,,---,0.00,0.00,VWS V14.01,2013-01-05 00:09:00,
2013-01-04 18:14:00,23.2,16.8,30.17,West,281,0.0,0.0,76,0.00,,---,0.00,0.00,VWS V14.01,2013-01-05 00:14:00,
2013-01-04 18:19:00,22.9,16.5,30.17,West,281,0.0,0.0,76,0.00,,---,0.00,0.00,VWS V14.01,2013-01-05 00:19:00,
2013-01-04 18:24:00,22.5,16.7,30.17,West,281,2.0,2.0,78,0.00,,---,0.00,0.00,VWS V14.01,2013-01-05 00:24:00,
2013-01-04 18:29:00,21.8,16.0,30.17,West,280,2.0,3.0,78,0.00,,---,0.00,0.00,VWS V14.01,2013-01-05 00:29:00,
2013-01-04 18:34:00,20.6,14.8,30.17,SW,222,4.0,4.0,78,0.00,,---,0.00,0.00,VWS V14.01,2013-01-05 00:34:00,
2013-01-04 18:39:00,19.9,14.7,30.17,SW,222,1.0,4.0,80,0.00,,---,0.00,0.00,VWS V14.01,2013-01-05 00:39:00,
2013-01-04 18:44:00,19.8,15.2,30.17,SW,222,3.0,4.0,82,0.00,,---,0.00,0.00,VWS V14.01,2013-01-05 00:44:00,
2013-01-04 18:49:00,19.9,15.6,30.17,SW,222,3.0,4.0,83,0.00,,---,0.00,0.00,VWS V14.01,2013-01-05 00:49:00,
2013-01-04 18:54:00,19.7,15.4,30.18,SW,222,4.0,5.0,83,0.00,,---,0.00,0.00,VWS V14.01,2013-01-05 00:54:00,
2013-01-04 18:59:00,19.3,15.3,30.17,SW,217,4.0,5.0,84,0.00,,---,0.00,0.00,VWS V14.01,2013-01-05 00:59:00,
2013-01-04 19:04:00,18.7,14.4,30.18,SSW,211,5.0,5.0,83,0.00,,---,0.00,0.00,VWS V14.01,2013-01-05 01:04:00,
2013-01-04 19:09:00,18.2,14.2,30.17,SSW,207,6.0,6.0,84,0.00,,---,0.00,0.00,VWS V14.01,2013-01-05 01:09:00,
2013-01-04 19:14:00,18.0,14.0,30.18,SSW,206,4.0,7.0,84,0.00,,---,0.00,0.00,VWS V14.01,2013-01-05 01:14:00,
2013-01-04 19:19:00,17.7,13.7,30.18,SSW,206,4.0,5.0,84,0.00,,---,0.00,0.00,VWS V14.01,2013-01-05 01:19:00,
2013-01-04 19:24:00,17.5,13.5,30.18,SSW,206,4.0,5.0,84,0.00,,---,0.00,0.00,VWS V14.01,2013-01-05 01:24:00,
2013-01-04 19:29:00,17.6,13.9,30.18,SSW,206,4.0,5.0,85,0.00,,---,0.00,0.00,VWS V14.01,2013-01-05 01:29:00,
2013-01-04 19:34:00,17.4,13.4,30.18,SSW,213,5.0,7.0,84,0.00,,---,0.00,0.00,VWS V14.01,2013-01-05 01:34:00,
2013-01-04 19:39:00,17.2,13.2,30.17,SW,219,5.0,7.0,84,0.00,,---,0.00,0.00,VWS V14.01,2013-01-05 01:39:00,
2013-01-04 19:44:00,17.4,13.4,30.17,SW,219,5.0,7.0,84,0.00,,---,0.00,0.00,VWS V14.01,2013-01-05 01:44:00,
2013-01-04 19:49:00,17.3,12.8,30.18,SW,218,5.0,5.0,82,0.00,,---,0.00,0.00,VWS V14.01,2013-01-05 01:49:00,
2013-01-04 19:54:00,17.0,12.5,30.18,SW,217,4.0,5.0,82,0.00,,---,0.00,0.00,VWS V14.01,2013-01-05 01:54:00,
2013-01-04 19:59:00,17.1,12.8,30.17,SW,217,3.0,5.0,83,0.00,,---,0.00,0.00,VWS V14.01,2013-01-05 01:59:00,
2013-01-04 20:04:00,17.3,13.0,30.17,SW,217,2.0,3.0,83,0.00,,---,0.00,0.00,VWS V14.01,2013-01-05 02:04:00,
2013-01-04 20:09:00,17.5,13.2,30.17,SW,217,1.0,3.0,83,0.00,,---,0.00,0.00,VWS V14.01,2013-01-05 02:09:00,
2013-01-04 20:14:00,17.7,13.4,30.17,SW,217,3.0,3.0,83,0.00,,---,0.00,0.00,VWS V14.01,2013-01-05 02:14:00,
2013-01-04 20:19:00,17.8,13.5,30.16,SW,217,2.0,2.0,83,0.00,,---,0.00,0.00,VWS V14.01,2013-01-05 02:19:00,
2013-01-04 20:24:00,17.9,13.6,30.17,SW,217,3.0,4.0,83,0.00,,---,0.00,0.00,VWS V14.01,2013-01-05 02:24:00,
2013-01-04 20:29:00,17.9,13.4,30.16,SW,217,2.0,4.0,82,0.00,,---,0.00,0.00,VWS V14.01,2013-01-05 02:29:00,
2013-01-04 20:34:00,17.7,13.1,30.16,SW,217,2.0,3.0,82,0.00,,---,0.00,0.00,VWS V14.01,2013-01-05 02:34:00,
2013-01-04 20:39:00,17.6,13.1,30.16,SW,217,3.0,4.0,82,0.00,,---,0.00,0.00,VWS V14.01,2013-01-05 02:39:00,
2013-01-04 20:44:00,17.5,12.9,30.16,SW,217,3.0,5.0,82,0.00,,---,0.00,0.00,VWS V14.01,2013-01-05 02:44:00,
2013-01-04 20:49:00,17.3,12.8,30.16,SW,217,3.0,3.0,82,0.00,,---,0.00,0.00,VWS V14.01,2013-01-05 02:49:00,
2013-01-04 20:54:00,17.2,12.7,30.16,SW,217,1.0,3.0,82,0.00,,---,0.00,0.00,VWS V14.01,2013-01-05 02:54:00,
2013-01-04 20:59:00,17.1,12.6,30.15,SW,217,1.0,3.0,82,0.00,,---,0.00,0.00,VWS V14.01,2013-01-05 02:59:00,
2013-01-04 21:04:00,16.9,12.4,30.15,SW,217,0.0,2.0,82,0.00,,---,0.00,0.00,VWS V14.01,2013-01-05 03:04:00,
2013-01-04 21:09:00,16.8,12.0,30.15,SW,217,0.0,2.0,81,0.00,,---,0.00,0.00,VWS V14.01,2013-01-05 03:09:00,
2013-01-04 21:14:00,16.5,11.7,30.15,SW,217,0.0,2.0,81,0.00,,---,0.00,0.00,VWS V14.01,2013-01-05 03:14:00,
2013-01-04 21:19:00,16.2,11.4,30.15,SW,217,0.0,0.0,81,0.00,,---,0.00,0.00,VWS V14.01,2013-01-05 03:19:00,
2013-01-04 21:24:00,16.0,11.2,30.15,SW,217,0.0,0.0,81,0.00,,---,0.00,0.00,VWS V14.01,2013-01-05 03:24:00,
2013-01-04 21:29:00,15.9,11.4,30.15,SW,217,0.0,0.0,82,0.00,,---,0.00,0.00,VWS V14.01,2013-01-05 03:29:00,
2013-01-04 21:34:00,15.6,11.1,30.14,SW,217,0.0,0.0,82,0.00,,---,0.00,0.00,VWS V14.01,2013-01-05 03:34:00,
2013-01-04 21:39:00,15.1,10.6,30.14,SW,217,2.0,3.0,82,0.00,,---,0.00,0.00,VWS V14.01,2013-01-05 03:39:00,
2013-01-04 21:44:00,14.3,10.1,30.14,SSW,203,3.0,4.0,83,0.00,,---,0.00,0.00,VWS V14.01,2013-01-05 03:44:00,
2013-01-04 21:49:00,13.9,10.0,30.14,SSW,204,3.0,4.0,84,0.00,,---,0.00,0.00,VWS V14.01,2013-01-05 03:49:00,
2013-01-04 21:54:00,13.7,9.8,30.14,SSW,204,3.0,4.0,84,0.00,,---,0.00,0.00,VWS V14.01,2013-01-05 03:54:00,
2013-01-04 21:59:00,13.3,9.4,30.15,SSW,204,2.0,4.0,84,0.00,,---,0.00,0.00,VWS V14.01,2013-01-05 03:59:00,
2013-01-04 22:04:00,13.3,9.6,30.15,SSW,204,3.0,4.0,85,0.00,,---,0.00,0.00,VWS V14.01,2013-01-05 04:04:00,
2013-01-04 22:09:00,13.3,9.6,30.15,SSW,204,3.0,4.0,85,0.00,,---,0.00,0.00,VWS V14.01,2013-01-05 04:09:00,
2013-01-04 22:14:00,12.9,9.2,30.15,SSW,202,3.0,5.0,85,0.00,,---,0.00,0.00,VWS V14.01,2013-01-05 04:14:00,
2013-01-04 22:19:00,12.3,8.7,30.15,SSW,202,3.0,4.0,85,0.00,,---,0.00,0.00,VWS V14.01,2013-01-05 04:19:00,
2013-01-04 22:24:00,11.9,8.3,30.15,SSW,202,1.0,4.0,85,0.00,,---,0.00,0.00,VWS V14.01,2013-01-05 04:24:00,
2013-01-04 22:29:00,11.9,8.3,30.14,SSW,202,0.0,4.0,85,0.00,,---,0.00,0.00,VWS V14.01,2013-01-05 04:29:00,
2013-01-04 22:34:00,11.8,8.2,30.14,SSW,202,0.0,0.0,85,0.00,,---,0.00,0.00,VWS V14.01,2013-01-05 04:34:00,
2013-01-04 22:39:00,11.8,8.2,30.14,SSW,202,0.0,0.0,85,0.00,,---,0.00,0.00,VWS V14.01,2013-01-05 04:39:00,
2013-01-04 22:44:00,11.9,8.5,30.14,SSW,202,0.0,0.0,86,0.00,,---,0.00,0.00,VWS V14.01,2013-01-05 04:44:00,
2013-01-04 22:49:00,12.2,8.8,30.13,SSW,202,1.0,2.0,86,0.00,,---,0.00,0.00,VWS V14.01,2013-01-05 04:49:00,
2013-01-04 22:55:00,12.2,8.8,30.13,SSW,202,0.0,2.0,86,0.00,,---,0.00,0.00,VWS V14.01,2013-01-05 04:55:00,
2013-01-04 23:00:00,12.0,8.4,30.13,SSW,202,2.0,3.0,85,0.00,,---,0.00,0.00,VWS V14.01,2013-01-05 05:00:00,
2013-01-04 23:03:00,11.8,8.2,30.13,SSW,202,2.0,3.0,85,0.00,,---,0.00,0.00,VWS V14.01,2013-01-05 05:03:00,
2013-01-04 23:08:00,11.0,7.1,30.13,SSW,202,2.0,4.0,84,0.00,,---,0.00,0.00,VWS V14.01,2013-01-05 05:08:00,
2013-01-04 23:13:00,10.4,6.5,30.13,SSW,202,2.0,4.0,84,0.00,,---,0.00,0.00,VWS V14.01,2013-01-05 05:13:00,
2013-01-04 23:18:00,10.3,6.7,30.12,SSW,202,4.0,4.0,85,0.00,,---,0.00,0.00,VWS V14.01,2013-01-05 05:18:00,
2013-01-04 23:23:00,10.1,6.5,30.12,SSW,202,0.0,3.0,85,0.00,,---,0.00,0.00,VWS V14.01,2013-01-05 05:23:00,
2013-01-04 23:28:00,10.1,6.5,30.12,SSW,202,0.0,3.0,85,0.00,,---,0.00,0.00,VWS V14.01,2013-01-05 05:28:00,
2013-01-04 23:33:00,10.1,6.5,30.12,SSW,202,2.0,3.0,85,0.00,,---,0.00,0.00,VWS V14.01,2013-01-05 05:33:00,
2013-01-04 23:38:00,10.2,6.8,30.11,SSW,202,3.0,4.0,86,0.00,,---,0.00,0.00,VWS V14.01,2013-01-05 05:38:00,
2013-01-04 23:43:00,10.2,6.6,30.11,SSW,202,1.0,4.0,85,0.00,,---,0.00,0.00,VWS V14.01,2013-01-05 05:43:00,
2013-01-04 23:48:00,10.1,6.5,30.12,SSW,202,0.0,4.0,85,0.00,,---,0.00,0.00,VWS V14.01,2013-01-05 05:48:00,
2013-01-04 23:53:00,10.0,6.4,30.12,SSW,202,0.0,0.0,85,0.00,,---,0.00,0.00,VWS V14.01,2013-01-05 05:53:00,
2013-01-04 23:58:00,9.9,6.3,30.11,SSW,202,0.0,0.0,85,0.00,,---,0.00,0.00,VWS V14.01,2013-01-05 05:58:00,